Regional Weather Roundup
Issued by NWS

Home | Current Version | Previous Version | Graphics & Text | Print | Product List | Glossary On
Versions: 1 2 3 4 5 6 7 8 9 10 11 12 13 14 15 16 17 18 19 20 21 22 23 24 25 26 27 28 29 30 31 32 33 34 35 36 37 38 39 40 41 42 43 44 45 46 47 48 49 50
000
ASUS43 KMKX 270600
RWRWI

WISCONSIN REGIONAL WEATHER ROUNDUP
NATIONAL WEATHER SERVICE MILWAUKEE/SULLIVAN WI
100 AM CDT THU APR 27 2017

NOTE: "FAIR" INDICATES FEW OR NO CLOUDS BELOW 12,000 FEET WITH NO
SIGNIFICANT WEATHER AND/OR OBSTRUCTIONS TO VISIBILITY.

WIZ001-002-006>008-014>016-023>028-270700-
NORTHWEST WISCONSIN

CITY           SKY/WX    TMP DP  RH WIND       PRES   REMARKS
SUPERIOR ARPT  CLOUDY    28  24  83 CALM      29.64R
ASHLAND        CLOUDY    29  27  92 N10       29.60S WCI  20
6HR MIN TEMP:  28; 6HR MAX TEMP:  32; 6HR PCP:  0.06;

HAYWARD        LGT SNOW  30  27  86 N7        29.56S FOG     WCI  23
6HR MIN TEMP:  30; 6HR MAX TEMP:  34; 6HR PCP: TRACE;

SIREN          CLOUDY    32  28  86 NE7       29.58F WCI  26
CUMBERLAND     CLOUDY    32  30  93 N8        29.55F WCI  25
RICE LAKE      CLOUDY    33  29  85 N9        29.56S WCI  25
6HR MIN TEMP:  33; 6HR MAX TEMP:  36;

CHETEK         CLOUDY    34  30  85 N5        29.55S WCI  30
LADYSMITH      CLOUDY    33  29  86 N9        29.55S WCI  25
EAU CLAIRE     CLOUDY    36  31  82 N9        29.51F WCI  29
MENOMONIE      CLOUDY    37  32  84 NW10      29.53F WCI  29
NEW RICHMOND   CLOUDY    34  31  88 N8        29.56F WCI  27
OSCEOLA        CLOUDY    35  31  87 N7        29.60F WCI  29
$$

WIZ003>005-009-010-017-018-270700-
NORTH CENTRAL WISCONSIN

CITY           SKY/WX    TMP DP  RH WIND       PRES   REMARKS
MANITOWISH WTR CLOUDY    29  29  99 N7        29.51S WCI  22
ARBOR VITAE    LGT SNOW  32  30  92 N10       29.48S WCI  23
WOODRUFF       LGT SNOW  32  30  92 N10       29.48S WCI  23
RHINELANDER    CLOUDY    34  33  96 N6        29.47F WCI  29
6HR MIN TEMP:  34; 6HR MAX TEMP:  41;

EAGLE RIVER    CLOUDY    32  31  96 N9        29.48S WCI  24
LAND O LAKES   CLOUDY    31  29  94 N6        29.51R FOG     WCI  25
PHILLIPS       CLOUDY    30  28  93 N7        29.50F WCI  23
6HR MIN TEMP:  30; 6HR MAX TEMP:  35;

TOMAHAWK       CLOUDY    33  31  92 N7        29.49S WCI  27
MEDFORD        CLOUDY    34  33  95 N8        29.48F WCI  27
MERRILL        CLOUDY    36  36 100 N8        29.47F WCI  29
$$

WIZ029-030-035-036-043>047-270700-
CENTRAL WISCONSIN

CITY           SKY/WX    TMP DP  RH WIND       PRES   REMARKS
WAUSAU         CLOUDY    38  35  89 NW9       29.45F WCI  31
6HR MIN TEMP:  38; 6HR MAX TEMP:  46;

MOSINEE        CLOUDY    37  37 100 N9        29.47F WCI  31
MARSHFIELD     CLOUDY    39  35  86 N8        29.46S WCI  33
6HR MIN TEMP:  39; 6HR MAX TEMP:  42;

STEVENS POINT  CLOUDY    40  40 100 NW5       29.46S
WAUPACA        CLOUDY    46  41  82 W3        29.45F
WAUTOMA        CLOUDY    44  42  93 NW7       29.46F
6HR MIN TEMP:  44; 6HR MAX TEMP:  49;

WISC RAPIDS    CLOUDY    42  39  89 NW8       29.47F
6HR MIN TEMP:  41; 6HR MAX TEMP:  46;

CAMP DOUGLAS   CLOUDY    41  39  93 NW7       29.48S
$$

WIZ011>013-019>022-031-037>040-048>050-270700-
NORTHEAST WISCONSIN

CITY           SKY/WX    TMP DP  RH WIND       PRES   REMARKS
ANTIGO         CLOUDY    37  37  99 N9        29.45F WCI  30
SHAWANO        CLOUDY    48  44  85 NW7       29.45S
OCONTO         CLOUDY    52  49  87 NW5       29.43S
STURGEON BAY   LGT RAIN  55  52  89 W5        29.43S
6HR MIN TEMP:  55; 6HR MAX TEMP:  62; 6HR PCP:  0.01;

GREEN BAY      LGT RAIN  51  50  96 W5        29.43F
6HR MIN TEMP:  51; 6HR MAX TEMP:  66; 6HR PCP:  0.01;

MANITOWOC      NOT AVBL
APPLETON       CLOUDY    46  43  87 NW6       29.43F
CLINTONVILLE   CLOUDY    46  43  87 N6        29.44F
OSHKOSH        CLOUDY    47  44  90 NW8       29.42F
6HR MIN TEMP:  47; 6HR MAX TEMP:  62; 6HR PCP: TRACE;

$$

WIZ032>034-041-042-053>061-270700-
SOUTHWEST WISCONSIN

CITY           SKY/WX    TMP DP  RH WIND       PRES   REMARKS
LA CROSSE      CLOUDY    42  38  85 N14       29.50F
6HR MIN TEMP:  42; 6HR MAX TEMP:  45; 6HR PCP: TRACE;

SPARTA         CLOUDY    40  38  93 NW6       29.50S
VIROQUA        CLOUDY    39  39  99 NW8       29.48F WCI  34
6HR MIN TEMP:  39; 6HR MAX TEMP:  43;

BOSCOBEL       LGT RAIN  44  39  82 N8        29.49F
6HR MIN TEMP:  44; 6HR MAX TEMP:  49; 6HR PCP: TRACE;

PRAIRIE DU CHI LGT RAIN  41  38  87 NW9       29.49F
PLATTEVILLE    CLOUDY    43  43  99 NW10      29.46F
$$

WIZ056-057-062-063-064-067-068-270700-
SOUTH CENTRAL WISCONSIN

CITY           SKY/WX    TMP DP  RH WIND       PRES   REMARKS
REEDSBURG      CLOUDY    42  42 100 NW7       29.47S
BARABOO/DELLS  CLOUDY    43  41  94 NW5       29.46S FOG
LONE ROCK      NOT AVBL
MINERAL POINT  LGT RAIN  43  43 100 NW9       29.46F
MADISON        LGT RAIN  47  45  93 N7        29.43F FOG
6HR MIN TEMP:  47; 6HR MAX TEMP:  54; 6HR PCP:  0.01;

MIDDLETON      CLOUDY    47  45  91 NW8       29.45F
WATERTOWN      DRIZZLE   49  49 100 N5        29.42F
MONROE         RAIN      46  45  93 NW3       29.43F
JANESVILLE     DRIZZLE   50  50 100 NW5       29.42F
$$

WIZ051-052-058>065-066-070>072-270700-
SOUTHEAST WISCONSIN

CITY           SKY/WX    TMP DP  RH WIND       PRES   REMARKS
MILWAUKEE      LGT RAIN  57  56  96 CALM      29.41F FOG
6HR MIN TEMP:  57; 6HR MAX TEMP:  67; 6HR PCP:  0.16;

WAUKESHA       LGT RAIN  52  52 100 CALM      29.43F
MILWAUKEE/TIMM RAIN      54  50  87 CALM      29.42F
RACINE         LGT RAIN  56  54  93 N3        29.42F FOG
6HR MIN TEMP:  56; 6HR MAX TEMP:  67; 6HR PCP:  0.14;

KENOSHA        LGT RAIN  57  55  93 NE3       29.40F FOG
6HR MIN TEMP:  57; 6HR MAX TEMP:  65; 6HR PCP:  0.16;

FOND DU LAC    LGT RAIN  48  44  86 NW7       29.43F
6HR MIN TEMP:  48; 6HR MAX TEMP:  63; 6HR PCP:  0.02;

SHEBOYGAN      LGT RAIN  51  49  92 NW6       29.43S
6HR MIN TEMP:  51; 6HR MAX TEMP:  65; 6HR PCP:  0.07;

WEST BEND      RAIN      52  52 100 N6        29.43F
JUNEAU         LGT RAIN  46  45  96 NW5       29.44F
$$

LSZ147-162-270700-
LAKE SUPERIOR

STATION/POSITION TIME  TEMP    WIND        PRES    WAVE
                       AIR SEA DIR/SP/G            HT/PER
                 (UTC) (F)     (DEG/KT/KT) (MB)    (FT/S)
DEVILS ISLAND    0500   28      10/ 13/ 15 1003.8R
SAXON HARBOR     0530   31      30/ 13/ 16 1002.4R
$$

LMZ867-665-643>646-270700-
LAKE MICHIGAN

STATION/POSITION TIME  TEMP    WIND        PRES    WAVE
                       AIR SEA DIR/SP/G            HT/PER
                 (UTC) (F)     (DEG/KT/KT) (MB)    (FT/S)
CHAMBERS ISLAND  0540   45     300/  8/ 11  997.3R
N MID LAKE BUOY  0450   42 37  180/  8/  8  997.4F   2/ 5
NORTHPORT PIER   0540   47     300/  9/ 12  996.6S
KEWAUNEE LAKESHO 0530   56     290/  7/  9  996.2F
SHEBOYGAN LAKESH 0500   57     300/  8/  9  996.5R
PORT WASHINGTON  0540   56      50/  2/  3  997.3F
MILWAUKEE LAKESH 0530   56      40/  3/  3   N/A
S MID LAKE BUOY  0450   52 42  130/  2/  2  997.4F   1
KENOSHA   LAKESH 0500   58      CALM  /  2  997.0
$$

TC  - TEMPERATURE IN CELSIUS
VSB - VISIBILITY IN STATUTE MILES
WCI - WIND CHILL INDEX
HX  - HEAT INDEX





USA.gov is the U.S. government's official web portal to all federal, state and local government web resources and services.